Location: Castelbiague
(43.0361°N, 0.9246°E)
Time: 10:10:20
(UTC+00:00)

Cosmos 2219 Rocket - Pass Details

Date: 17 June 2021
Orbit: 829 x 845 km, 71.0° (Epoch: 03 August)

Event Time Altitude Azimuth Distance (km) Brightness Sun altitude
Exits shadow 21:07:36 18° 146° (SE) 1,961 3.5 -12.9°
Maximum altitude 21:10:33 28° 103° (ESE) 1,550 3.2 -13.3°
Drops below altitude 10° 21:15:15 10° 46° (NE) 2,472 4.7 -13.8°
Sets 21:18:01 0° 35° (NE) 3,410 5.6 -14.1°
